Weather History for Bentonville, AR

Change the Weather History Date:

Friday, May 3, 2013

  Actual Average Record
Temperature  
Mean Temperature 40 °F -  
Max Temperature 46 °F 70 °F 87 °F (1952)
Min Temperature 33 °F 47 °F 32 °F (1954)
Degree Days  
Heating Degree Days 26    
Moisture  
Dew Point 31 °F    
Average Humidity 77    
Maximum Humidity 87    
Minimum Humidity 49    
Precipitation  
Precipitation 0.21 in - - ()
Sea Level Pressure  
Sea Level Pressure 30.06 in    
Wind  
Wind Speed 11 mph (NNW)    
Max Wind Speed 18 mph    
Max Gust Speed 25 mph    
Visibility 8 miles    
Events      
Averages and records for this station are not official NWS values.
T = Trace of Precipitation, MM = Missing Value Source: NWS Daily Summary

Daily Weather History Graph

Daily Weather History Graph

Search for Another Location

Airport:

Trip Planner

Search our weather history database for the weather conditions in past years. The results will help you decide how hot, cold, wet, or windy it might be!

Date:

Astronomy

May. 03, 2013 Rise Set
Actual Time 6:21 AM CDT 8:06 PM CDT
Civil Twilight 5:53 AM CDT 8:34 PM CDT
Nautical Twilight 5:19 AM CDT 9:08 PM CDT
Astronomical Twilight 4:44 AM CDT 9:43 PM CDT
Moon 2:35 AM CDT (5/3) 2:12 PM CDT (5/3)
Length of Visible Light 14h 41m
Length of Day
13h 45m
Last Quarter, 37% of the Moon is Illuminated
May 3
Last Quarter
May 9
New
May 17
First Quarter
May 24
Full
May 31
Last Quarter

Hourly Weather History & Observations

Time (CDT) Temp. Windchill Dew Point Humidity Pressure Visibility Wind Dir Wind Speed Gust Speed Precip Events Conditions
12:15 AM 33.8 °F 24.8 °F 30.2 °F 87% 30.22 in 7.0 mi North 12.7 mph 17.3 mph 0.03 in   Overcast
12:35 AM 33.8 °F 26.4 °F 30.2 °F 87% 30.23 in 10.0 mi NNW 9.2 mph - 0.03 in   Overcast
12:55 AM 33.8 °F 24.3 °F 30.2 °F 87% 30.20 in 6.0 mi North 13.8 mph 20.7 mph 0.03 in   Overcast
1:15 AM 33.8 °F 24.8 °F 30.2 °F 87% 30.19 in 5.0 mi NNW 12.7 mph 18.4 mph 0.01 in   Overcast
1:35 AM 33.8 °F 25.3 °F 30.2 °F 87% 30.20 in 5.0 mi NNW 11.5 mph - 0.01 in   Overcast
1:55 AM 33.8 °F 25.8 °F 30.2 °F 87% 30.19 in 10.0 mi NNW 10.4 mph 16.1 mph 0.01 in   Overcast
2:15 AM 33.8 °F 24.8 °F 30.2 °F 87% 30.17 in 10.0 mi North 12.7 mph 17.3 mph N/A   Overcast
2:35 AM 33.8 °F 25.8 °F 30.2 °F 87% 30.15 in 7.0 mi NNW 10.4 mph 18.4 mph N/A   Overcast
2:55 AM 33.8 °F 24.8 °F 30.2 °F 87% 30.14 in 3.0 mi North 12.7 mph 17.3 mph 0.01 in   Overcast
3:15 AM 33.8 °F 25.3 °F 30.2 °F 87% 30.14 in 3.0 mi NNW 11.5 mph 17.3 mph N/A   Overcast
3:35 AM 33.8 °F 27.0 °F 30.2 °F 87% 30.16 in 1.5 mi NNW 8.1 mph - N/A   Overcast
3:55 AM 33.8 °F 24.8 °F 30.2 °F 87% 30.15 in 1.2 mi NNW 12.7 mph - 0.01 in   Overcast
4:15 AM 33.8 °F 24.3 °F 30.2 °F 87% 30.13 in 1.5 mi NNW 13.8 mph 17.3 mph N/A   Overcast
4:35 AM 33.8 °F 25.3 °F 30.2 °F 87% 30.13 in 1.5 mi NNW 11.5 mph 16.1 mph 0.02 in   Overcast
4:55 AM 33.8 °F 27.0 °F 30.2 °F 87% 30.15 in 3.0 mi NNW 8.1 mph 18.4 mph 0.03 in   Overcast
5:15 AM 33.8 °F 25.8 °F 30.2 °F 87% 30.12 in 6.0 mi NNW 10.4 mph 17.3 mph 0.03 in   Overcast
5:35 AM 33.8 °F 24.8 °F 30.2 °F 87% 30.10 in 5.0 mi NNW 12.7 mph 18.4 mph 0.06 in   Overcast
5:55 AM 33.8 °F 24.8 °F 30.2 °F 87% 30.11 in 9.0 mi NNW 12.7 mph 18.4 mph 0.07 in   Overcast
6:15 AM 33.8 °F 26.4 °F 30.2 °F 87% 30.11 in 10.0 mi NNW 9.2 mph 18.4 mph 0.01 in   Overcast
6:35 AM 33.8 °F 25.8 °F 30.2 °F 87% 30.11 in 9.0 mi NNW 10.4 mph - 0.01 in   Overcast
6:55 AM 33.8 °F 24.8 °F 30.2 °F 87% 30.09 in 9.0 mi NNW 12.7 mph 20.7 mph 0.01 in   Overcast
7:15 AM 33.8 °F 26.4 °F 30.2 °F 87% 30.10 in 10.0 mi NNW 9.2 mph 17.3 mph N/A   Overcast
7:35 AM 35.6 °F 28.0 °F 30.2 °F 81% 30.09 in 10.0 mi NNW 10.4 mph 18.4 mph N/A   Overcast
7:55 AM 35.6 °F 28.6 °F 30.2 °F 81% 30.09 in 9.0 mi NNW 9.2 mph 16.1 mph N/A   Overcast
8:15 AM 35.6 °F 29.2 °F 30.2 °F 81% 30.09 in 8.0 mi NNW 8.1 mph 16.1 mph N/A   Overcast
8:35 AM 35.6 °F 26.6 °F 30.2 °F 81% 30.09 in 8.0 mi NNW 13.8 mph 20.7 mph N/A   Overcast
8:55 AM 35.6 °F 27.1 °F 30.2 °F 81% 30.09 in 9.0 mi NNW 12.7 mph 17.3 mph N/A   Overcast
9:15 AM 35.6 °F 30.7 °F 30.2 °F 81% 30.09 in 10.0 mi NNW 5.8 mph - N/A   Overcast
9:35 AM 35.6 °F 27.5 °F 32.0 °F 87% 30.07 in 9.0 mi NW 11.5 mph - N/A   Overcast
9:55 AM 35.6 °F 27.1 °F 32.0 °F 87% 30.08 in 10.0 mi NNW 12.7 mph 17.3 mph N/A   Overcast
10:15 AM 37.4 °F 31.4 °F 32.0 °F 81% 30.09 in 10.0 mi NNW 8.1 mph - N/A   Overcast
10:35 AM 37.4 °F 30.3 °F 32.0 °F 81% 30.08 in 5.0 mi NNW 10.4 mph - N/A   Overcast
10:55 AM 37.4 °F 30.3 °F 33.8 °F 87% 30.07 in 6.0 mi NW 10.4 mph 16.1 mph N/A   Overcast
11:15 AM 37.4 °F 29.8 °F 33.8 °F 87% 30.07 in 5.0 mi NW 11.5 mph - N/A   Overcast
11:35 AM 37.4 °F 31.4 °F 33.8 °F 87% 30.07 in 5.0 mi NW 8.1 mph 16.1 mph N/A   Overcast
11:55 AM 39.2 °F 31.6 °F 33.8 °F 81% 30.06 in 5.0 mi NW 12.7 mph - N/A   Overcast
12:15 PM 39.2 °F 31.6 °F 33.8 °F 81% 30.06 in 7.0 mi NW 12.7 mph 17.3 mph N/A   Overcast
12:35 PM 39.2 °F 33.0 °F 33.8 °F 81% 30.05 in 7.0 mi NW 9.2 mph 19.6 mph 0.01 in   Overcast
12:55 PM 39.2 °F 30.2 °F 35.6 °F 87% 30.05 in 9.0 mi NW 17.3 mph 25.3 mph 0.02 in   Overcast
1:15 PM 39.2 °F 32.5 °F 35.6 °F 87% 30.04 in 10.0 mi NNW 10.4 mph 18.4 mph N/A   Overcast
1:35 PM 41.0 °F 35.8 °F 35.6 °F 81% 30.03 in 10.0 mi NW 8.1 mph 18.4 mph N/A   Overcast
1:55 PM 41.0 °F 35.2 °F 33.8 °F 76% 30.03 in 10.0 mi NW 9.2 mph 19.6 mph 0.01 in   Overcast
2:15 PM 41.0 °F 33.5 °F 35.6 °F 81% 30.03 in 10.0 mi NW 13.8 mph 19.6 mph 0.01 in   Overcast
2:35 PM 41.0 °F 34.7 °F 33.8 °F 76% 30.02 in 10.0 mi North 10.4 mph - 0.01 in   Overcast
2:55 PM 41.0 °F 35.8 °F 35.6 °F 81% 30.02 in 10.0 mi North 8.1 mph - 0.01 in   Overcast
3:15 PM 42.8 °F 37.0 °F 35.6 °F 76% 30.01 in 10.0 mi NNW 10.4 mph - N/A   Overcast
3:35 PM 44.6 °F 40.2 °F 33.8 °F 66% 30.00 in 10.0 mi North 8.1 mph - N/A   Mostly Cloudy
3:55 PM 44.6 °F 38.8 °F 30.2 °F 57% 29.99 in 10.0 mi NNW 11.5 mph 21.9 mph N/A   Mostly Cloudy
4:15 PM 44.6 °F 38.4 °F 28.4 °F 53% 29.99 in 10.0 mi NNW 12.7 mph 20.7 mph N/A   Mostly Cloudy
4:35 PM 44.6 °F 36.9 °F 30.2 °F 57% 29.98 in 10.0 mi NNW 18.4 mph 24.2 mph N/A   Overcast
4:55 PM 44.6 °F 40.2 °F 30.2 °F 57% 29.98 in 10.0 mi NNW 8.1 mph - N/A   Overcast
5:15 PM 44.6 °F 38.8 °F 30.2 °F 57% 29.98 in 10.0 mi North 11.5 mph - N/A   Mostly Cloudy
5:35 PM 46.4 °F 41.9 °F 28.4 °F 50% 29.97 in 10.0 mi NNW 9.2 mph 19.6 mph N/A   Mostly Cloudy
5:55 PM 44.6 °F 38.8 °F 28.4 °F 53% 29.98 in 10.0 mi NNW 11.5 mph 18.4 mph N/A   Partly Cloudy
6:15 PM 44.6 °F 38.8 °F 26.6 °F 49% 29.98 in 10.0 mi NNW 11.5 mph 18.4 mph N/A   Scattered Clouds
6:35 PM 44.6 °F 39.2 °F 26.6 °F 49% 29.98 in 10.0 mi NW 10.4 mph 17.3 mph N/A   Mostly Cloudy
6:55 PM 44.6 °F 40.2 °F 28.4 °F 53% 29.97 in 10.0 mi NW 8.1 mph - N/A   Overcast
7:15 PM 44.6 °F 38.8 °F 28.4 °F 53% 29.98 in 10.0 mi North 11.5 mph - N/A   Overcast
7:35 PM 42.8 °F 37.0 °F 30.2 °F 61% 29.98 in 10.0 mi North 10.4 mph - N/A   Overcast
7:55 PM 42.8 °F 36.6 °F 30.2 °F 61% 29.98 in 10.0 mi North 11.5 mph 17.3 mph N/A   Overcast
8:15 PM 42.8 °F 37.5 °F 28.4 °F 57% 29.98 in 10.0 mi NNW 9.2 mph 17.3 mph N/A   Overcast
8:35 PM 42.8 °F 37.5 °F 28.4 °F 57% 29.98 in 10.0 mi NW 9.2 mph 21.9 mph N/A   Overcast
8:55 PM 41.0 °F 34.7 °F 30.2 °F 65% 29.98 in 10.0 mi NNW 10.4 mph 24.2 mph N/A   Overcast
9:15 PM 39.2 °F 33.0 °F 32.0 °F 75% 29.98 in 10.0 mi North 9.2 mph - N/A   Overcast
9:35 PM 39.2 °F 35.0 °F 32.0 °F 75% 29.98 in 10.0 mi NW 5.8 mph - N/A   Overcast
9:55 PM 39.2 °F 35.9 °F 32.0 °F 75% 29.98 in 10.0 mi NNW 4.6 mph - N/A   Overcast
10:15 PM 39.2 °F 35.0 °F 32.0 °F 75% 29.97 in 10.0 mi NW 5.8 mph - N/A   Mostly Cloudy
10:35 PM 39.2 °F 34.2 °F 32.0 °F 75% 29.96 in 10.0 mi NW 6.9 mph - N/A   Overcast
10:55 PM 39.2 °F 34.2 °F 32.0 °F 75% 29.95 in 10.0 mi NNW 6.9 mph - N/A   Overcast
11:15 PM 37.4 °F 30.8 °F 30.2 °F 75% 29.94 in 10.0 mi NNW 9.2 mph - N/A   Overcast
11:35 PM 37.4 °F 31.4 °F 30.2 °F 75% 29.94 in 10.0 mi NW 8.1 mph - N/A   Overcast
11:55 PM 37.4 °F 29.8 °F 30.2 °F 75% 29.93 in 10.0 mi NW 11.5 mph - N/A   Overcast